Location: Drocourt
(49.0571°N, 1.7669°E)
Time: 18:43:11
(UTC+00:00)

Transit 2A Rocket - Visible Passes

Search period start: 23 April 2024 00:00
Search period end: 03 May 2024 00:00
Orbit: 586 x 907 km, 66.7° (Epoch: 23 April)

Date Brightness Start Highest point End Pass type
(mag) Time Alt. Az. Time Alt. Az. Time Alt. Az.
23 Apr 6.0 19:45:20 10° NW 19:50:47 53° WSW 19:56:33 10° SSE visible
24 Apr 7.6 20:45:14 10° WNW 20:48:42 16° WSW 20:52:15 10° SW visible
25 Apr 7.1 20:00:22 10° NW 20:05:03 27° WSW 20:09:56 10° SSW visible
27 Apr 7.9 20:16:37 10° WNW 20:19:03 13° WSW 20:21:32 10° SW visible
